Location: Warwick
(41.7000°N, 71.4170°W)
Time: 10:55:08
(UTC-05:00)

BREEZE-M DEB (TANK) - Visible Passes

Search period start: 20 February 2017 00:00
Search period end: 02 March 2017 00:00
Orbit: 307 x 15859 km, 49.5° (Epoch: 19 February)

Date Brightness Start Highest point End Pass type
(mag) Time Alt. Az. Time Alt. Az. Time Alt. Az.
23 Feb 5.8 21:14:33 10° W 21:14:39 11° W 21:14:39 11° W visible
24 Feb 5.8 21:17:01 10° W 21:17:17 12° W 21:17:17 12° W visible
25 Feb 5.8 21:19:28 10° W 21:19:55 12° WSW 21:19:55 12° WSW visible
26 Feb 5.8 21:21:57 10° WSW 21:22:35 13° WSW 21:22:35 13° WSW visible
27 Feb 5.9 21:24:28 10° WSW 21:25:18 13° WSW 21:25:18 13° WSW visible
28 Feb 6.0 21:27:03 10° WSW 21:28:04 13° WSW 21:28:04 13° WSW visible
01 Mar 6.1 21:29:40 10° WSW 21:30:54 13° SW 21:30:54 13° SW visible
